Flag for U.S.A. Weather past 2 weeks in Albany, New York, U.S.A.

Now
18 °F

Light snow. Overcast.


Feels Like: 7 °F
Forecast: 9 / 21 °F
Wind: 9 mph from North

Location: Albany County Airport

Current Time: Jan 26, 2015 at 4:30:30 PM

Latest Report: Jan 26, 2015 at 3:51 PM


Visibility: 10 mi

Pressure: 30.04 "Hg

Humidity: 47%

Dew point: 1 °F

Location of AlbanyLocation

Historic Weather in Albany — Graph

°F

Albany temperature yesterday

Maximum temperature yesterday: 36 °F (at 5:51 AM)
Minimum temperature yesterday: 13 °F (at 11:51 PM)
Average temperature yesterday: 26 °F

Past Weeks' High & Low Weather Summary

 TemperatureHumidityPressure
High40 °F (Jan 18, 2:51 PM)96% (Jan 18, 6:51 PM)30.75 "Hg (Jan 18, 6:51 PM)
Low-9 °F (Jan 14, 5:51 AM)33% (Jan 17, 3:51 PM)29.32 "Hg (Jan 24, 4:51 PM)
Average22 °F63%30.10 "Hg
* Reported Jan 11 2:51 PM — Jan 26 2:51 PM, Albany, Weather by CustomWeather, © 2014

Note: Actual official high and low records may vary slightly from our data, if they occured in-between our weather recording intervals... More about our weather records

Advertising

Albany weather history for previous 24 hours

 ConditionsComfort  
Time TempWeatherWind HumidityBarometerVisibility
2:51 PM
Jan 26
17 °FLight snow. Overcast.7 mph45%30.05 "Hg10 mi
1:51 PM17 °FOvercast.7 mph45%30.04 "Hg10 mi
12:51 PM16 °FMostly cloudy.7 mph47%30.07 "Hg10 mi
11:51 AM15 °FMostly cloudy.6 mph49%30.10 "Hg10 mi
10:51 AM13 °FMore clouds than sun.6 mph54%30.13 "Hg10 mi
9:51 AM11 °FMostly cloudy.10 mph56%30.14 "Hg10 mi
8:51 AM10 °FMostly cloudy.10 mph55%30.13 "Hg10 mi
7:51 AM10 °FMostly cloudy.9 mph58%30.13 "Hg10 mi
6:51 AM10 °FMostly cloudy.9 mph58%30.12 "Hg10 mi
5:51 AM10 °FMostly cloudy.8 mph58%30.11 "Hg10 mi
4:51 AM10 °FMostly cloudy.9 mph58%30.12 "Hg10 mi
3:51 AM10 °FMostly cloudy.6 mph61%30.12 "Hg10 mi
2:51 AM11 °FPassing clouds.6 mph59%30.13 "Hg10 mi
1:51 AM10 °FPartly cloudy.6 mph61%30.11 "Hg10 mi
12:51 AM12 °FPassing clouds.8 mph56%30.11 "Hg10 mi
11:51 PM
Jan 25
13 °FPassing clouds.6 mph56%30.12 "Hg10 mi
10:51 PM14 °FPassing clouds.6 mph53%30.09 "Hg10 mi
9:51 PM15 °FPassing clouds.7 mph53%30.06 "Hg10 mi
8:51 PM16 °FPartly cloudy.6 mph51%30.03 "Hg10 mi
7:51 PM18 °FPartly cloudy.14 mph49%30.00 "Hg10 mi
6:51 PM19 °FPassing clouds.8 mph47%29.98 "Hg10 mi
5:51 PM20 °FPassing clouds.16 mph45%29.94 "Hg10 mi
4:51 PM21 °FPartly sunny.13 mph47%29.91 "Hg10 mi
Weather by CustomWeather, © 2014

See weather overviewHow to use our weather pages